Previsão horária em Aberdare

Hoje, 13 Abril, Terça-feira

Tempo Temperatura Precipitação Vento Pressão Humidade
00:00 0°C° 0 mm 1 m/s 739 mmHg 87%
01:00 0°C° 0 mm 1 m/s 739 mmHg 86%
02:00 0°C° 0 mm 1 m/s 739 mmHg 86%
03:00 0°C° 0 mm 1 m/s 739 mmHg 85%
04:00 0°C° 0 mm 1 m/s 739 mmHg 85%
05:00 -1°C° 0 mm 0 m/s 739 mmHg 84%
06:00 -1°C° 0 mm 0 m/s 740 mmHg 83%
07:00 +1°C° 0 mm 0 m/s 740 mmHg 79%
08:00 +3°C° 0 mm 0 m/s 740 mmHg 74%
09:00 +5°C° 0 mm 0 m/s 741 mmHg 70%
10:00 +7°C° 0 mm 1 m/s 741 mmHg 67%
11:00 +8°C° 0 mm 1 m/s 741 mmHg 65%
12:00 +9°C° 0 mm 1 m/s 740 mmHg 63%
13:00 +9°C° 0.1 mm 1 m/s 740 mmHg 64%
14:00 +9°C° 0.1 mm 1 m/s 740 mmHg 65%
15:00 +9°C° 0.1 mm 1 m/s 740 mmHg 66%
16:00 +8°C° 0.1 mm 1 m/s 740 mmHg 71%
17:00 +8°C° 0.1 mm 1 m/s 740 mmHg 76%
18:00 +7°C° 0.1 mm 1 m/s 740 mmHg 81%
19:00 +6°C° 0 mm 1 m/s 740 mmHg 84%
20:00 +5°C° 0 mm 1 m/s 740 mmHg 86%
21:00 +3°C° 0 mm 1 m/s 740 mmHg 89%
22:00 +3°C° 0 mm 1 m/s 740 mmHg 88%
23:00 +3°C° 0 mm 1 m/s 740 mmHg 88%

Amanhã, 14 Abril, Quarta-feira

Tempo Temperatura Precipitação Vento Pressão Humidade
00:00 +3°C° 0 mm 1 m/s 740 mmHg 87%
01:00 +2°C° 0 mm 1 m/s 740 mmHg 88%
02:00 +2°C° 0 mm 1 m/s 740 mmHg 89%
03:00 +2°C° 0 mm 1 m/s 740 mmHg 89%
04:00 +2°C° 0 mm 1 m/s 740 mmHg 89%
05:00 +2°C° 0 mm 1 m/s 740 mmHg 89%
06:00 +2°C° 0 mm 1 m/s 740 mmHg 89%
07:00 +4°C° 0 mm 1 m/s 740 mmHg 83%
08:00 +4°C° 0 mm 2 m/s 740 mmHg 77%
09:00 +6°C° 0 mm 2 m/s 741 mmHg 71%
10:00 +7°C° 0 mm 2 m/s 741 mmHg 67%
11:00 +8°C° 0 mm 2 m/s 741 mmHg 63%
12:00 +9°C° 0 mm 2 m/s 740 mmHg 59%
13:00 +9°C° 0.1 mm 2 m/s 740 mmHg 59%
14:00 +9°C° 0.1 mm 2 m/s 740 mmHg 59%
15:00 +10°C° 0.1 mm 1 m/s 740 mmHg 59%
16:00 +8°C° 0.1 mm 2 m/s 740 mmHg 65%
17:00 +8°C° 0.1 mm 2 m/s 740 mmHg 70%
18:00 +7°C° 0.1 mm 2 m/s 740 mmHg 76%
19:00 +6°C° 0 mm 2 m/s 740 mmHg 79%
20:00 +4°C° 0 mm 2 m/s 740 mmHg 82%
21:00 +4°C° 0 mm 1 m/s 740 mmHg 84%
22:00 +3°C° 0 mm 1 m/s 740 mmHg 85%
23:00 +2°C° 0 mm 2 m/s 740 mmHg 85%

Depois de amanhã, 15 Abril, Quinta-feira

Tempo Temperatura Precipitação Vento Pressão Humidade
00:00 +1°C° 0 mm 2 m/s 740 mmHg 86%
01:00 +1°C° 0 mm 2 m/s 740 mmHg 86%
02:00 -1°C° 0 mm 2 m/s 740 mmHg 86%
03:00 -1°C° 0 mm 2 m/s 740 mmHg 86%
04:00 -1°C° 0 mm 2 m/s 740 mmHg 87%
05:00 -2°C° 0 mm 2 m/s 740 mmHg 88%
06:00 -2°C° 0 mm 2 m/s 740 mmHg 88%
07:00 +1°C° 0 mm 2 m/s 740 mmHg 83%
08:00 +2°C° 0 mm 3 m/s 740 mmHg 77%
09:00 +3°C° 0 mm 3 m/s 741 mmHg 71%
10:00 +4°C° 0 mm 3 m/s 740 mmHg 66%
11:00 +5°C° 0 mm 4 m/s 740 mmHg 60%
12:00 +6°C° 0 mm 4 m/s 740 mmHg 55%
13:00 +6°C° 0 mm 4 m/s 740 mmHg 53%
14:00 +7°C° 0 mm 4 m/s 740 mmHg 51%
15:00 +7°C° 0 mm 4 m/s 739 mmHg 50%
16:00 +6°C° 0 mm 4 m/s 739 mmHg 57%
17:00 +5°C° 0 mm 4 m/s 739 mmHg 65%
18:00 +4°C° 0 mm 4 m/s 739 mmHg 72%
19:00 +3°C° 0 mm 3 m/s 739 mmHg 77%
20:00 +1°C° 0 mm 3 m/s 739 mmHg 82%
21:00 0°C° 0 mm 3 m/s 739 mmHg 87%
22:00 -1°C° 0 mm 3 m/s 739 mmHg 87%
23:00 -2°C° 0 mm 3 m/s 739 mmHg 88%

16 Abril, Sexta-feira

Tempo Temperatura Precipitação Vento Pressão Humidade
00:00 -2°C° 0 mm 3 m/s 739 mmHg 89%
01:00 -4°C° 0 mm 3 m/s 739 mmHg 89%
02:00 -4°C° 0 mm 3 m/s 739 mmHg 90%
03:00 -5°C° 0 mm 3 m/s 739 mmHg 90%
04:00 -5°C° 0 mm 3 m/s 739 mmHg 89%
05:00 -5°C° 0 mm 3 m/s 739 mmHg 88%
06:00 -5°C° 0 mm 3 m/s 739 mmHg 86%
07:00 -1°C° 0 mm 3 m/s 739 mmHg 77%
08:00 0°C° 0 mm 4 m/s 739 mmHg 67%
09:00 +2°C° 0 mm 5 m/s 740 mmHg 58%
10:00 +4°C° 0 mm 4 m/s 740 mmHg 55%
11:00 +5°C° 0 mm 4 m/s 740 mmHg 53%
12:00 +6°C° 0 mm 4 m/s 740 mmHg 51%
13:00 +7°C° 0 mm 4 m/s 739 mmHg 50%
14:00 +7°C° 0 mm 4 m/s 739 mmHg 50%
15:00 +7°C° 0 mm 4 m/s 739 mmHg 49%
16:00 +8°C° 0 mm 3 m/s 739 mmHg 55%
17:00 +7°C° 0 mm 2 m/s 739 mmHg 61%
18:00 +6°C° 0 mm 2 m/s 739 mmHg 67%
19:00 +5°C° 0 mm 2 m/s 739 mmHg 72%
20:00 +3°C° 0 mm 2 m/s 739 mmHg 78%
21:00 +2°C° 0 mm 2 m/s 739 mmHg 83%
22:00 +1°C° 0 mm 2 m/s 739 mmHg 85%
23:00 +1°C° 0 mm 2 m/s 739 mmHg 86%

17 Abril, Sábado

Tempo Temperatura Precipitação Vento Pressão Humidade
00:00 -1°C° 0 mm 2 m/s 739 mmHg 88%
01:00 -1°C° 0 mm 2 m/s 738 mmHg 87%
02:00 -2°C° 0 mm 2 m/s 738 mmHg 86%
03:00 -2°C° 0 mm 2 m/s 738 mmHg 85%
04:00 -2°C° 0 mm 2 m/s 738 mmHg 85%
05:00 -2°C° 0 mm 2 m/s 738 mmHg 85%
06:00 -2°C° 0 mm 2 m/s 738 mmHg 84%
07:00 +1°C° 0 mm 2 m/s 738 mmHg 77%
08:00 +3°C° 0 mm 2 m/s 738 mmHg 71%
09:00 +4°C° 0 mm 3 m/s 738 mmHg 64%
10:00 +5°C° 0 mm 3 m/s 737 mmHg 62%
11:00 +5°C° 0 mm 3 m/s 737 mmHg 59%
12:00 +7°C° 0 mm 3 m/s 737 mmHg 57%
13:00 +8°C° 0 mm 3 m/s 737 mmHg 57%
14:00 +8°C° 0 mm 2 m/s 736 mmHg 56%
15:00 +8°C° 0 mm 2 m/s 736 mmHg 56%
16:00 +9°C° 0 mm 1 m/s 736 mmHg 61%
17:00 +8°C° 0 mm 1 m/s 736 mmHg 66%
18:00 +8°C° 0 mm 1 m/s 736 mmHg 70%
19:00 +7°C° 0 mm 1 m/s 736 mmHg 73%
20:00 +4°C° 0 mm 0 m/s 736 mmHg 75%
21:00 +3°C° 0 mm 0 m/s 736 mmHg 77%
22:00 +3°C° 0 mm 0 m/s 735 mmHg 77%
23:00 +3°C° 0 mm 0 m/s 735 mmHg 76%

18 Abril, Domingo

Tempo Temperatura Precipitação Vento Pressão Humidade
00:00 +3°C° 0 mm 0 m/s 735 mmHg 76%
01:00 +3°C° 0 mm 0 m/s 735 mmHg 77%
02:00 +2°C° 0 mm 0 m/s 735 mmHg 78%
03:00 +2°C° 0 mm 0 m/s 735 mmHg 79%
04:00 +2°C° 0 mm 0 m/s 735 mmHg 80%
05:00 +3°C° 0 mm 1 m/s 734 mmHg 81%
06:00 +3°C° 0 mm 1 m/s 734 mmHg 82%
07:00 +5°C° 0 mm 1 m/s 734 mmHg 78%
08:00 +5°C° 0 mm 2 m/s 735 mmHg 74%
09:00 +7°C° 0 mm 3 m/s 735 mmHg 70%
10:00 +8°C° 0 mm 3 m/s 734 mmHg 65%
11:00 +7°C° 0 mm 4 m/s 734 mmHg 61%
12:00 +8°C° 0 mm 4 m/s 734 mmHg 56%
13:00 +8°C° 0 mm 4 m/s 734 mmHg 58%
14:00 +8°C° 0 mm 5 m/s 733 mmHg 60%
15:00 +8°C° 0 mm 5 m/s 733 mmHg 62%
16:00 +8°C° 0 mm 4 m/s 733 mmHg 67%
17:00 +7°C° 0 mm 4 m/s 732 mmHg 72%
18:00 +6°C° 0 mm 4 m/s 732 mmHg 78%
19:00 +5°C° 0.2 mm 4 m/s 732 mmHg 81%
20:00 +5°C° 0.2 mm 4 m/s 732 mmHg 85%
21:00 +4°C° 0.2 mm 4 m/s 732 mmHg 88%
22:00 +4°C° 0.6 mm 4 m/s 731 mmHg 91%
23:00 +4°C° 0.6 mm 4 m/s 731 mmHg 94%
Mostrar mais

Necessitamos do seu Consentimento

A Meteoprog e os seus Fornecedores de Serviços podem armazenar e aceder a dados pessoais como cookies, identificadores do dispositivo ou outras tecnologias semelhantes existentes no seu dispositivo e processar estes dados para personalizar conteúdos e anúncios, assim como funcionalidades nas redes sociais e análise de tráfego.

  • Armazenar e/ou aceder a informações no seu dispositivo

    Os cookies, identificadores do dispositivo ou outras informações podem ser armazenados ou acedidos no seu dispositivo, para os fins acima indicados.

  • Anúncios e conteúdos personalizados, medição de anúncios e conteúdos, dados sobre o público-alvo e desenvolvimento de produtos

    Os anúncios e os conteúdos podem ser personalizados com base num perfil. Podem ser adicionados dados adicionais para uma maior personalização dos anúncios e dos conteúdos. A eficácia dos anúncios e dos conteúdos pode ser medida. Podem ser obtidas informações sobre o público que visualizou os anúncios e os conteúdos. Estes dados podem ser usados para desenvolver ou melhorar sistemas, softwares ou a experiência do utilizador.

Ao clicar em "Eu concordo”, permitirá o uso de cookies, identificadores do dispositivo e web beacons mencionados ou outras tecnologias semelhantes. As configurações do navegador do seu dispositivo podem ser alteradas.

Para certos fins, podem ser invocados interesses legítimos ao invés de consentimento. Pode ler mais informação sobre este assunto na nossa Política de Privacidade e Cookies.